Overview Statistics Trail Chart Weather Telemetry Raw packets
 

This is the latest recevied weather packets stored in our database for station/object KI5NXU. If no packets are shown the sender has not sent any weather packets the latest 10 day(s).

<< 64 65 66 67 68 69 70 >>
Time Temp. Humidity Pressure Rain* Wind** Luminosity Snow
1787920311 23.33° C 73% 1018 hPa 0 mm - 17 W/m² -
1787920009 23.33° C 73% 1018.1 hPa 0 mm - 13 W/m² -
1787919708 23.33° C 73% 1017.9 hPa 0 mm - 10 W/m² -
1787919402 22.78° C 72% 1018 hPa 0 mm - 7 W/m² -
1787919098 22.78° C 73% 1017.8 hPa 0 mm - 3 W/m² -
1787918794 23.33° C 73% 1018.1 hPa 0 mm - 2 W/m² -
1787918493 22.78° C 72% 1018 hPa 0 mm - 0 W/m² -
1787918192 22.78° C 73% 1017.8 hPa 0 mm - 0 W/m² -
1787917886 22.78° C 73% 1017.7 hPa 0 mm - 0 W/m² -
1787917582 22.78° C 72% 1017.7 hPa 0 mm - 0 W/m² -
1787917279 22.78° C 72% 1017.7 hPa 0 mm - 0 W/m² -
1787916978 22.22° C 73% 1017.8 hPa 0 mm - 0 W/m² -
1787916672 22.78° C 72% 1017.6 hPa 0 mm - 0 W/m² -
1787916367 23.33° C 71% 1017.3 hPa 0 mm - 0 W/m² -
1787916063 23.33° C 70% 1017.3 hPa 0 mm - 0 W/m² -
1787915763 23.33° C 69% 1017.3 hPa 0 mm - 0 W/m² -
1787915458 23.89° C 69% 1017.3 hPa 0 mm - 0 W/m² -
1787915157 23.89° C 68% 1017.3 hPa 0 mm - 0 W/m² -
1787914852 23.89° C 68% 1017.3 hPa 0 mm - 0 W/m² -
1787914550 23.33° C 69% 1017.2 hPa 0 mm - 0 W/m² -
1787914246 23.89° C 68% 1017 hPa 0 mm - 0 W/m² -
1787913945 24.44° C 66% 1017.1 hPa 0 mm - 0 W/m² -
1787913640 23.89° C 67% 1017.2 hPa 0 mm - 0 W/m² -
1787913339 23.89° C 67% 1017.1 hPa 0 mm - 0 W/m² -
1787913034 23.89° C 67% 1017.1 hPa 0 mm - 0 W/m² -

* Rain latest hour (hover to see other rain measurements)
** Current wind speed in m/s (hover to see current wind gust speed)